Location: Arbon
(43.0005°N, 0.7472°E)
Time: 15:01:32
(UTC+00:00)

Envisat - Pass Details

Date: 01 November 2020
Orbit: 764 x 766 km, 98.1° (Epoch: 30 November)

Event Time Altitude Azimuth Distance (km) Brightness Sun altitude
Rises 18:29:50 0° 215° (SW) 3,221 6.8 -18.9°
Reaches altitude 10° 18:33:21 10° 241° (WSW) 2,301 6.4 -19.6°
Maximum altitude 18:35:52 14° 271° (W) 2,055 6.3 -20.0°
Drops below altitude 10° 18:38:24 10° 301° (WNW) 2,309 6.3 -20.5°
Sets 18:41:57 0° 327° (NNW) 3,241 6.7 -21.1°
